Hourly Data Report for July 13, 2003

SHERBROOKE A
QUEBEC

45°26'00.000" N
71°41'00.000" W
241.40 m
7028124
71610
YSC

Download Data

Hourly Data (July 2003)
Hourly Data Report for July 13, 2003
TIME
LST
Temp Definition
°C
Dew Point Definition
°C
Rel Hum Definition
%
Precip. Amount Definition
mm

Wind Dir Definition
10's deg

Wind Spd Definition
km/h
Visibility Definition
km
Stn Press Definition
kPa
Hmdx Definition


Wind Chill Definition


Weather Definition


00:00 15.9 13.7 87   19 6 15.0 98.26      
01:00 16.2 12.9 81   21 7 15.0 98.28      
02:00 15.7 13.1 85   19 6 15.0 98.30      
03:00 16.1 12.8 81   21 9 15.0 98.33      
04:00 15.9 12.8 82   20 6 15.0 98.37      
05:00 15.8 12.8 82   19 4 15.0 98.41      
06:00 16.7 12.9 78   23 6 15.0 98.44      
07:00 17.0 13.2 78   21 6 24.1 98.50     Cloudy
08:00 17.5 13.1 75   23 13 24.1 98.55     Cloudy
09:00 18.1 13.8 76   22 9 24.1 98.60     Cloudy
10:00 17.8 13.4 75   23 13 24.1 98.68     Cloudy
11:00 17.6 13.5 77   22 15 24.1 98.73     Cloudy
12:00 18.0 13.8 76   22 17 24.1 98.76     Cloudy
13:00 18.3 14.1 76   21 17 24.1 98.76     Cloudy
14:00 20.0 14.6 71   19 11 24.1 98.78     Mostly Cloudy
15:00 17.5 14.6 83   28 6 24.1 98.81     Mostly Cloudy
16:00 20.4 14.9 71   28 4 24.1 98.80     Mostly Cloudy
17:00 19.8 13.4 67   25 15 15.0 98.82      
18:00 18.8 13.4 71   24 11 15.0 98.86      
19:00 17.5 13.3 76   25 7 15.0 98.88      
20:00 16.0 13.3 84   22 7 15.0 98.94      
21:00 15.6 12.8 83   21 6 15.0 99.01      
22:00 15.4 13.0 86   22 7 15.0 99.09      
23:00 14.7 12.8 88   20 7 15.0 99.12      

Notes on Data Quality.

Legend

  • E = Estimated
  • M = Missing
  • NA = Not Available*
  • [empty] = Indicates an unobserved value
Date modified: